Smithers, British Columbia

2:01 PM PDT on October 18, 2017 (GMT -0700)
Smithers

Weather History for CYYD - May, 2014

Change the Weather History Date:

Monday, May 12, 2014

  Actual Average Record
Temperature  
Mean Temperature 55 °F -  
Max Temperature 70 °F 62 °F 77 °F (2015)
Min Temperature 40 °F 39 °F 30 °F (2007)
Degree Days  
Heating Degree Days 10    
Growing Degree Days 5 (Base 50)    
Moisture  
Dew Point 38 °F    
Average Humidity 57    
Maximum Humidity 93    
Minimum Humidity 20    
Precipitation  
Precipitation 0.00 in 0.05 in - ()
Sea Level Pressure  
Sea Level Pressure 30.29 in    
Wind  
Wind Speed 3 mph ()    
Max Wind Speed 14 mph    
Max Gust Speed 22 mph    
Visibility 9.3 miles    
Events      
Averages and records for this station are not official NWS values.
T = Trace of Precipitation, MM = Missing Value Source: Averaged Metar Reports

Daily Weather History Graph

Daily Weather History Graph

Search for Another Location

Airport or City:

Trip Planner

Search our weather history database for the weather conditions in past years. The results will help you decide how hot, cold, wet, or windy it might be!

Date:

Astronomy

May. 12, 2014 Rise Set
Actual Time 5:27 AM PDT 9:24 PM PDT
Civil Twilight 4:40 AM PDT 10:10 PM PDT
Nautical Twilight 3:34 AM PDT 11:18 PM PDT
Astronomical Twilight 1:57 AM PDT 12:52 AM PDT
Moon 7:08 PM PDT (5/12) 4:35 AM PDT (5/12)
Length of Visible Light 17h 30m
Length of Day
15h 57m
Waxing Gibbous, 95% of the Moon is Illuminated
May 12
Waxing Gibbous
May 14
Full
May 21
Last Quarter
May 28
New
Jun 5
First Quarter

Hourly Weather History & Observations

Time (PDT) Temp. Windchill Dew Point Humidity Pressure Visibility Wind Dir Wind Speed Gust Speed Precip Events Conditions
12:00 AM 46.4 °F - 41.0 °F 81% 30.29 in 9.0 mi Calm Calm - N/A   Clear
1:00 AM 46.4 °F - 41.0 °F 81% 30.31 in 9.0 mi Calm Calm - N/A   Mostly Cloudy
2:00 AM 42.8 °F - 39.2 °F 87% 30.31 in 9.0 mi Calm Calm - N/A   Clear
3:00 AM 42.8 °F - 39.2 °F 87% 30.31 in 9.0 mi Calm Calm - N/A   Overcast
4:00 AM 41.0 °F - 39.2 °F 93% 30.31 in 9.0 mi WSW 2.3 mph - N/A   Mostly Cloudy
5:00 AM 40 °F - 38 °F 89% 30.32 in 10 mi East 1.2 mph - -  
5:00 AM 41.0 °F - 37.4 °F 87% 30.32 in 9.0 mi Calm Calm - N/A   Mostly Cloudy
6:00 AM 41.0 °F - 37.4 °F 87% 30.33 in 9.0 mi SE 2.3 mph - N/A   Mostly Cloudy
7:00 AM 42.8 °F - 39.2 °F 87% 30.33 in 25.0 mi Calm Calm - N/A   Overcast
8:00 AM 44.6 °F 42.2 °F 39.2 °F 81% 30.32 in 25.0 mi WNW 4.6 mph - N/A   Overcast
9:00 AM 48.2 °F - 41.0 °F 76% 30.31 in 25.0 mi North 4.6 mph - N/A   Mostly Cloudy
10:00 AM 51.8 °F - 41.0 °F 67% 30.31 in 25.0 mi SSE 3.5 mph - N/A   Mostly Cloudy
11:00 AM 57 °F - 41 °F 44% 30.30 in 10 mi SSW 3.5 mph - -  
11:00 AM 57.2 °F - 41.0 °F 55% 30.30 in 25.0 mi SSW 3.5 mph - N/A   Overcast
12:00 PM 60.8 °F - 41.0 °F 48% 30.28 in 25.0 mi West 3.5 mph - N/A   Overcast
1:00 PM 64.4 °F - 37.4 °F 37% 30.26 in 25.0 mi NW 3.5 mph - N/A   Mostly Cloudy
2:00 PM 66.2 °F - 37.4 °F 35% 30.26 in 25.0 mi East 8.1 mph - N/A   Overcast
3:00 PM 68.0 °F - 37.4 °F 33% 30.24 in 25.0 mi SE 9.2 mph - N/A   Overcast
4:00 PM 69.8 °F - 39.2 °F 33% 30.23 in 25.0 mi South 13.8 mph 21.9 mph N/A   Mostly Cloudy
5:00 PM 67 °F - 35 °F 20% 30.25 in 10 mi SSW 13.8 mph - -  
5:00 PM 66.2 °F - 35.6 °F 32% 30.24 in 25.0 mi South 10.4 mph 20.7 mph N/A   Mostly Cloudy
6:00 PM 66.2 °F - 33.8 °F 30% 30.25 in 25.0 mi SSW 10.4 mph 19.6 mph N/A   Mostly Cloudy
7:00 PM 62.6 °F - 35.6 °F 37% 30.25 in 25.0 mi South 8.1 mph - N/A   Mostly Cloudy
8:00 PM 62.6 °F - 33.8 °F 34% 30.26 in 25.0 mi SSE 8.1 mph - N/A   Mostly Cloudy
9:00 PM 59.0 °F - 33.8 °F 39% 30.28 in 9.0 mi SE 8.1 mph - N/A   Partly Cloudy
10:00 PM 57.2 °F - 33.8 °F 41% 30.29 in 9.0 mi ESE 5.8 mph - N/A   Mostly Cloudy
11:00 PM 55 °F - 36 °F 37% 30.30 in 10 mi ESE 5.8 mph - -  
11:00 PM 55.4 °F - 35.6 °F 47% 30.30 in 9.0 mi ESE 5.8 mph - N/A   Partly Cloudy